ARIANE 5 R/B, 40148

Orbit data source: Space-Track

ARIANE 5 R/B, 40148 is space debris in HEO originally from a launch on Thu, 11 Sep 2014 UTC launched from the French Guiana (FRGUI). Debris objects in space refer to the collection of defunct objects orbiting the Earth. Examples of debris include non-operational satellites, rocket bodies, and fragments generated from explosions, collisions, or faulty payload assembly.

Loading next visibility...
Identifier
40148, 2014-054C
Orbit
HEO
Country
Flag of FRFR
Related business
Manufacturer
ADS/LV
Mission
Spacecraft
Bus & Motor
ESC-A, Unknown motor
Mass
~5,000 kg wet, ~5,000 kg dry
Launch date (UTC)
2014-09-11 (11 years ago)
Launch vehicle
Unknown
Launch site
French Guiana (FRGUI)
Object type
Payload
Rocket body
Debris
Shape & HBR
Cyl + 1 Nozzle, 3.5 m
Radar Cross Section
41.627 m², Large (>1 m²)

Expand to show TLE details & history
Last TLE update: 10 hours ago

TLE from 10 hours ago
0 ARIANE 5 R/B
1 40148U 14054C   25351.48026221  .00003420  00000-0  95521-3 0  9996
2 40148   5.6105 119.5891 7042238 196.3557 116.6491  2.58351535 99117
Epoch: 2025-12-17T11:31Z
TLE epoch observation values (Epoch: 2025-12-17T11:31:34.654Z)
Latitude
-0.00001°
Longitude
-139.81669°
Altitude
28,456.739 km
Speed
2.262 km/s
True Right ascension
07h 57m 42s
True Declination
0° 00' 00"
Sunlit
Object was in daylight at epoch
Visualization orbit readout
Latitude
Unknown
Longitude
Unknown
Altitude
Unknown
Speed
Unknown
Apparent Right ascension
Unknown
Apparent Declination
Unknown
Sunlit
N/A
Visualization observer readout
Local Sidereal Time
19:58:09
Azimuth
Unknown
Elevation
Unknown
Doppler factor
Unknown
Orbital elements
Apogee altitude
31,865.516 km
Perigee altitude
259.232 km
Semi-major axis
22,440.511 km
Eccentricity
0.70422
Inclination
5.6105°
RAAN
119.5891°
Arg. of periapsis
196.3557°
True anomaly
163.52375°
Mean anomaly
116.6491°
Eccentric anomaly
141.67204°
Mean motion
0.64565 °/min
Orbital period
557.58 mins
BSTAR
0.00095521
Loading maneuver chart data...
Computing Atmospheric mass density...
Loading historical data...
Loading historical data...
Loading historical data...
Loading historical data...
Loading historical data...
Loading historical data...
Loading historical data...
Other satellites on launch #54 in the year 2014 (2014-09-11 UTC)

Documentation

Showing up to 5 results
|